Location: Unspecified
(40.7945°N, 111.1337°W)
Time: 09:49:44
(UTC-06:00)

Vanguard 1 - Pass Details

Date: 25 June 2019
Orbit: 653 x 3830 km, 34.3° (Epoch: 17 July)

Event Time Altitude Azimuth Distance (km) Brightness Sun altitude
Rises 02:32:30 0° 230° (SW) 7,961 - -24.0°
Reaches altitude 10° 02:38:23 10° 226° (SW) 6,854 - -23.7°
Exits shadow 02:46:44 27° 216° (SW) 5,243 13.1 -23.2°
Maximum altitude 02:58:50 51° 159° (SSE) 3,445 12.4 -22.4°
Drops below altitude 10° 03:11:35 10° 89° (E) 4,466 13.7 -21.4°
Sets 03:14:29 0° 84° (E) 5,121 14.2 -21.1°
